Tulsa, OK

3:50 PM CST on December 05, 2016 (GMT -0600)
Tulsa International

Weather History for KTUL - May, 2013

Change the Weather History Date:

Tuesday, May 21, 2013

  Actual Average Record
Temperature  
Mean Temperature 63 °F 71 °F  
Max Temperature 69 °F 81 °F 95 °F (1925)
Min Temperature 57 °F 61 °F 45 °F (1915)
Degree Days  
Heating Degree Days 4    
Cooling Degree Days 0 6  
Month to date cooling degree days 75 94  
Year to date cooling degree days 111 159  
Growing Degree Days 12 (Base 50)    
Moisture  
Dew Point 61 °F    
Average Humidity 91    
Maximum Humidity 100    
Minimum Humidity 81    
Precipitation  
Precipitation 0.38 in 0.21 in 1.90 in (1978)
Month to date precipitation 2.41 4.01  
Year to date precipitation 11.58 14.60  
Sea Level Pressure  
Sea Level Pressure 29.79 in    
Wind  
Wind Speed 7 mph (West)    
Max Wind Speed 23 mph    
Max Gust Speed 31 mph    
Visibility 8 miles    
Events Rain , Thunderstorm    
T = Trace of Precipitation, MM = Missing Value Source: NWS Daily Summary

Daily Weather History Graph

Daily Weather History Graph

Search for Another Location

Airport or City:

Trip Planner

Search our weather history database for the weather conditions in past years. The results will help you decide how hot, cold, wet, or windy it might be!

Date:

Astronomy

May. 21, 2013 Rise Set
Actual Time 6:12 AM CDT 8:27 PM CDT
Civil Twilight 5:43 AM CDT 8:57 PM CDT
Nautical Twilight 5:08 AM CDT 9:32 PM CDT
Astronomical Twilight 4:29 AM CDT 10:11 PM CDT
Moon 4:48 PM CDT (5/21) 3:34 AM CDT (5/21)
Length of Visible Light 15h 13m
Length of Day
14h 15m
Waxing Gibbous, 84% of the Moon is Illuminated
May 21
Waxing Gibbous
May 24
Full
May 31
Last Quarter
Jun 8
New
Jun 16
First Quarter

Hourly Weather History & Observations

Time (CDT) Temp. Dew Point Humidity Pressure Visibility Wind Dir Wind Speed Gust Speed Precip Events Conditions
12:53 AM 69.1 °F 68.0 °F 96% 29.73 in 8.0 mi Calm Calm - N/A   Overcast
1:53 AM 68.0 °F 66.0 °F 93% 29.72 in 9.0 mi SE 4.6 mph - N/A   Overcast
2:53 AM 68.0 °F 64.9 °F 90% 29.72 in 9.0 mi South 6.9 mph - N/A   Overcast
3:32 AM 68.0 °F 64.9 °F 90% 29.76 in 9.0 mi SSE 9.2 mph - N/A   Overcast
3:46 AM 68.0 °F 63.0 °F 84% 29.75 in 10.0 mi South 9.2 mph - N/A   Overcast
3:53 AM 68.0 °F 63.0 °F 84% 29.73 in 10.0 mi South 6.9 mph - N/A   Overcast
4:46 AM 64.0 °F 64.0 °F 100% 29.75 in 8.0 mi NNW 3.5 mph - N/A   Overcast
4:53 AM 64.9 °F 64.0 °F 97% 29.74 in 8.0 mi Calm Calm - N/A   Overcast
5:19 AM 66.0 °F 64.9 °F 96% 29.77 in 8.0 mi Calm Calm - N/A   Mostly Cloudy
5:27 AM 66.0 °F 64.9 °F 96% 29.78 in 9.0 mi South 4.6 mph - N/A   Overcast
5:50 AM 66.2 °F 64.4 °F 94% 29.78 in 9.0 mi Calm Calm - N/A   Overcast
5:53 AM 66.0 °F 64.0 °F 93% 29.77 in 9.0 mi Calm Calm - N/A   Overcast
6:53 AM 64.9 °F 64.9 °F 100% 29.77 in 8.0 mi North 6.9 mph - N/A   Overcast
7:53 AM 64.0 °F 60.1 °F 87% 29.82 in 7.0 mi NE 4.6 mph - N/A   Overcast
8:53 AM 63.0 °F 61.0 °F 93% 29.78 in 10.0 mi NW 17.3 mph 24.2 mph 0.02 in Rain Light Rain
9:05 AM 62.1 °F 60.1 °F 93% 29.77 in 10.0 mi North 13.8 mph - 0.00 in   Mostly Cloudy
9:53 AM 62.1 °F 59.0 °F 90% 29.80 in 10.0 mi NNW 6.9 mph - 0.00 in   Overcast
10:45 AM 63.0 °F 57.9 °F 84% 29.86 in 10.0 mi Calm Calm - N/A Thunderstorm Thunderstorm
10:53 AM 63.0 °F 59.0 °F 87% 29.86 in 7.0 mi West 5.8 mph - 0.00 in Rain , Thunderstorm Light Thunderstorms and Rain
11:00 AM 62.1 °F 60.1 °F 93% 29.88 in 6.0 mi West 5.8 mph - 0.00 in Rain , Thunderstorm Light Thunderstorms and Rain
11:14 AM 62.1 °F 59.0 °F 90% 29.89 in 2.5 mi Variable 5.8 mph - 0.03 in Rain , Thunderstorm Thunderstorms and Rain
11:23 AM 61.0 °F 59.0 °F 93% 29.90 in 3.0 mi West 12.7 mph - 0.05 in Rain , Thunderstorm Thunderstorms and Rain
11:45 AM 60.1 °F 59.0 °F 96% 29.88 in 6.0 mi Variable 3.5 mph - 0.12 in Rain , Thunderstorm Light Thunderstorms and Rain
11:53 AM 61.0 °F 59.0 °F 93% 29.85 in 8.0 mi South 3.5 mph - 0.13 in Rain , Thunderstorm Light Thunderstorms and Rain
12:02 PM 61.0 °F 59.0 °F 93% 29.83 in 6.0 mi North 6.9 mph - 0.00 in Rain Light Rain
12:29 PM 60.1 °F 57.9 °F 93% 29.74 in 10.0 mi ENE 9.2 mph 21.9 mph 0.02 in   Overcast
12:48 PM 62.6 °F 59.0 °F 88% 29.78 in 10.0 mi WNW 8.1 mph - 0.02 in   Overcast
12:53 PM 62.1 °F 59.0 °F 90% 29.78 in 10.0 mi WNW 6.9 mph - 0.02 in   Overcast
1:41 PM 63.0 °F 59.0 °F 87% 29.86 in 10.0 mi West 16.1 mph - N/A Thunderstorm Thunderstorm
1:53 PM 62.1 °F 59.0 °F 90% 29.86 in 10.0 mi West 12.7 mph - 0.00 in Rain , Thunderstorm Light Thunderstorms and Rain
2:18 PM 60.1 °F 59.0 °F 96% 29.89 in 3.0 mi WNW 16.1 mph - 0.04 in Rain , Thunderstorm Thunderstorms and Rain
2:53 PM 60.1 °F 57.9 °F 93% 29.86 in 5.0 mi NW 8.1 mph - 0.13 in Rain , Thunderstorm Light Thunderstorms and Rain
3:53 PM 59.0 °F 57.9 °F 96% 29.76 in 6.0 mi SE 13.8 mph 26.5 mph 0.08 in Rain , Thunderstorm Light Thunderstorms and Rain
4:04 PM 59.0 °F 57.9 °F 96% 29.73 in 10.0 mi East 15.0 mph 20.7 mph 0.00 in Rain Light Rain
4:53 PM 59.0 °F 57.9 °F 96% 29.70 in 10.0 mi NNW 12.7 mph 25.3 mph 0.00 in   Overcast
5:53 PM 60.1 °F 59.0 °F 96% 29.73 in 10.0 mi NW 9.2 mph - N/A   Mostly Cloudy
6:53 PM 61.0 °F 59.0 °F 93% 29.73 in 10.0 mi West 6.9 mph - N/A   Mostly Cloudy
7:53 PM 62.1 °F 57.9 °F 86% 29.76 in 10.0 mi SW 3.5 mph - N/A   Mostly Cloudy
8:53 PM 62.1 °F 59.0 °F 90% 29.78 in 10.0 mi SSW 4.6 mph - N/A   Mostly Cloudy
9:53 PM 62.1 °F 59.0 °F 90% 29.80 in 10.0 mi SSW 4.6 mph - N/A   Scattered Clouds
10:53 PM 60.1 °F 59.0 °F 96% 29.80 in 10.0 mi SSW 4.6 mph - N/A   Mostly Cloudy
11:53 PM 59.0 °F 57.9 °F 96% 29.80 in 10.0 mi Calm Calm - N/A   Partly Cloudy